Theta_e
349 340 339 341 341 341 342 341 336 338 339 340 338 336 337 337 336 336 337 337 337 338 339 339 339 340 339 339 336 326 323 323 335 336 339 338 337 338 338 341 341 339 337
346 339 339 340 340 341 341 339 335 337 336 339 338 341 339 339 338 337 339 339 336 335 334 333 334 335 337 338 339 338 336 333 335 338 339 338 337 337 337 338 337 337 336
349 340 339 339 341 341 339 334 334 335 338 340 338 341 341 341 339 339 340 341 340 340 340 341 341 338 327 333 337 338 338 337 337 337 341 348 345 338 338 339 338 337 336
348 348 340 338 338 341 341 339 340 334 335 335 334 336 338 336 336 336 336 337 337 338 338 339 340 341 340 328 332 336 335 336 334 333 338 338 347 337 336 339 338 338 337
349 347 335 339 341 340 339 338 337 338 332 328 328 328 329 331 333 333 332 334 335 336 337 339 340 341 340 337 329 325 327 329 332 330 337 342 347 337 333 335 336 332 331
350 341 333 338 340 339 339 332 328 331 335 336 337 337 337 335 331 330 332 333 334 337 338 339 339 339 339 339 338 336 331 328 328 345 349 343 344 342 340 327 331 333 330
347 330 330 331 330 326 328 333 338 337 337 337 338 339 338 337 336 335 334 335 337 338 339 340 340 341 341 342 342 340 339 335 342 348 348 347 346 345 341 336 332 331 330
345 348 335 334 329 331 337 337 336 337 338 341 340 339 338 337 336 336 336 337 337 339 343 344 344 345 346 346 346 346 345 339 349 348 349 348 348 346 344 340 338 337 337
345 348 338 332 334 336 336 336 337 342 343 342 341 340 340 339 338 338 338 340 339 339 344 347 347 347 347 347 346 344 344 346 348 350 350 348 348 346 343 340 339 340 339
344 346 347 336 343 339 337 336 340 342 342 344 344 349 350 348 349 351 352 346 345 344 344 344 345 345 345 346 339 342 343 344 347 352 350 349 348 349 343 341 342 343 344
348 347 346 349 350 348 338 344 344 347 349 349 345 350 353 352 353 352 346 345 346 346 346 347 346 347 346 343 342 346 349 350 349 348 350 351 348 346 344 344 345 345 344
344 344 346 348 347 349 347 347 348 351 343 345 347 351 354 352 350 353 350 348 348 348 352 347 348 351 353 350 350 337 349 352 352 350 350 346 348 345 336 327 324 326 333
343 343 344 346 346 347 349 350 351 352 352 352 349 352 354 354 355 354 352 355 351 353 350 358 351 350 353 352 351 351 348 351 351 349 335 334 330 328 328 326 324 317 318
340 341 345 345 346 350 349 350 351 352 350 353 349 349 354 357 355 350 354 350 353 355 347 353 354 354 349 352 349 349 349 349 350 346 343 341 340 336 335 332 327 321 321
339 340 345 346 348 349 350 353 351 352 352 352 354 353 355 356 345 352 352 353 354 352 352 355 351 345 351 350 350 349 351 345 348 345 344 346 345 342 338 335 328 327 325
340 342 346 344 343 348 352 348 352 353 350 352 355 353 359 355 350 353 353 356 350 351 350 356 350 347 350 352 350 349 348 348 348 347 348 348 346 344 343 339 335 332 330
341 343 346 347 344 346 350 353 354 345 351 354 354 353 353 349 353 352 357 353 348 354 349 352 349 353 352 351 350 350 350 350 349 349 347 347 346 345 342 337 333 333 331
342 344 345 348 350 349 352 356 354 351 352 355 354 353 353 356 352 353 355 346 357 357 354 353 352 348 349 348 348 347 348 349 350 350 349 346 343 335 335 340 334 334 333
342 344 346 348 353 354 353 352 355 350 353 352 352 356 349 354 354 358 349 355 352 353 349 351 354 348 350 344 341 340 345 348 346 351 350 347 345 340 342 342 339 333 328
344 345 347 350 352 353 355 353 353 347 354 351 352 355 346 354 352 352 353 358 354 352 349 347 353 351 351 337 344 344 340 341 345 346 349 350 348 345 344 342 340 335 328
347 347 348 351 352 353 355 346 353 352 351 352 348 354 352 351 354 356 356 354 359 357 349 345 350 353 349 339 340 343 341 343 344 345 341 346 349 344 341 346 342 340 336
347 349 351 351 352 353 354 353 354 356 356 354 356 351 349 354 355 356 353 342 357 360 354 353 339 347 350 347 343 339 341 345 338 336 335 334 336 332 340 337 335 338 336
346 347 349 351 351 345 352 352 354 352 353 350 345 350 353 355 354 356 355 356 354 358 356 356 348 344 346 350 348 345 340 340 338 337 334 334 331 334 337 334 332 334 334
347 348 348 347 347 348 342 353 352 351 347 352 353 355 357 354 354 354 356 357 356 353 356 357 353 339 345 350 349 349 345 344 339 338 336 333 331 332 333 331 321 319 325
344 347 348 350 350 350 346 340 350 349 351 350 350 349 353 349 348 354 355 355 356 358 359 355 356 347 343 346 351 349 346 344 341 339 336 334 333 334 334 329 325 324 325
344 345 347 350 350 348 353 345 343 350 347 348 352 349 352 352 352 356 355 356 356 352 356 358 356 353 347 344 341 350 348 345 344 340 338 334 330 335 335 330 327 324 325
Wind_Speed
11 9 11 11 11 9 10 12 12 11 13 14 14 14 14 13 11 11 10 9 9 9 8 7 6 5 6 8 8 10 11 8 6 1 5 7 6 9 9 10 12 8 11
11 13 12 12 11 11 11 10 11 11 12 13 13 13 13 12 12 12 12 10 10 9 7 6 5 4 3 4 5 7 7 6 4 3 3 4 2 4 6 6 5 3 7
12 12 13 13 11 11 13 11 11 12 11 12 12 11 11 11 11 11 10 10 9 9 8 7 6 5 4 4 5 5 6 6 5 4 4 4 3 1 1 4 6 8 3
15 14 14 13 12 12 12 11 10 11 11 10 9 8 8 8 9 8 8 7 8 7 6 6 4 4 3 4 5 5 6 6 5 6 4 12 8 2 2 4 6 6 5
21 16 11 12 12 12 11 11 10 10 10 9 8 7 7 6 5 5 5 5 5 5 5 4 3 3 3 3 4 5 5 4 6 10 6 4 4 2 3 5 6 6 7
17 11 12 13 12 12 11 10 10 10 10 9 8 7 6 5 5 5 4 4 4 4 4 4 3 3 3 2 2 2 3 4 9 7 12 7 9 7 3 5 5 5 5
16 12 13 13 12 12 12 11 10 10 9 8 7 7 6 5 4 4 4 4 5 5 5 5 5 5 5 4 3 2 1 4 4 4 8 8 8 5 2 3 4 5 5
18 12 13 13 13 13 12 11 10 9 8 8 9 8 9 8 8 8 7 6 6 6 6 5 5 5 4 3 3 3 2 5 5 8 7 8 8 4 6 5 4 5 5
16 13 12 13 13 11 10 10 9 9 10 9 11 14 14 14 13 11 9 8 6 5 4 3 4 3 4 4 4 4 2 2 6 6 7 9 8 6 5 6 5 6 7
13 14 11 11 13 10 9 9 10 10 12 13 14 14 13 12 9 9 6 7 5 4 2 3 2 2 1 3 5 4 4 5 4 3 7 8 7 7 8 9 8 9 10
17 15 10 9 7 7 8 10 11 12 10 10 11 7 7 7 4 7 7 5 8 8 8 6 5 6 4 9 4 1 6 5 4 2 5 7 9 7 9 9 10 10 11
12 12 10 10 10 9 9 7 9 6 7 7 9 8 7 2 3 3 3 8 7 10 2 5 3 4 5 8 6 13 8 5 7 6 8 3 6 6 6 7 9 12 13
13 13 10 12 10 7 6 3 2 2 3 5 6 5 2 4 4 4 0 6 2 4 9 6 10 8 3 6 5 5 7 4 14 7 2 2 2 2 3 4 6 6 10
13 12 12 11 12 7 5 8 5 4 1 2 6 3 7 7 5 10 8 12 10 9 10 3 14 8 10 2 2 4 2 4 16 7 5 5 5 5 4 4 4 6 4
14 13 13 11 14 14 9 3 6 2 5 3 1 6 7 9 4 6 7 14 13 14 7 7 13 2 4 3 3 2 3 4 7 9 7 5 6 8 7 7 2 5 4
14 14 11 9 12 16 6 9 8 4 3 2 8 2 3 5 4 8 11 13 12 6 11 3 7 10 4 3 3 3 4 4 11 9 7 6 7 10 11 10 8 2 3
16 15 12 10 11 11 10 8 1 7 4 1 5 7 7 11 6 9 9 7 11 10 10 6 8 5 11 2 7 9 6 7 7 12 13 10 7 9 16 12 11 8 4
16 16 14 12 10 9 5 2 10 6 4 3 6 3 5 6 9 13 15 8 9 11 6 10 9 3 9 5 4 1 5 4 7 9 11 12 12 6 20 17 18 14 11
18 17 16 14 10 7 6 6 4 5 6 7 2 5 6 3 7 7 7 9 11 10 8 4 6 11 7 12 3 8 1 4 6 12 13 15 19 15 9 23 22 16 13
18 18 17 13 10 7 5 3 3 8 2 4 4 1 5 4 5 8 9 8 7 7 13 8 5 10 5 14 7 3 6 4 6 5 8 10 8 8 7 14 18 17 15
18 20 18 16 12 12 10 8 2 5 7 2 4 4 4 5 2 6 8 10 11 8 13 10 4 4 8 13 11 3 3 6 3 4 1 3 3 5 7 9 12 12 18
19 18 19 17 15 14 11 10 10 1 1 8 4 6 1 1 3 5 7 4 6 7 10 13 12 8 9 14 16 9 6 6 7 6 8 7 7 10 6 7 7 10 13
21 20 19 19 18 16 14 10 11 11 3 1 6 8 4 3 2 3 5 2 7 10 4 7 11 8 6 10 11 9 6 5 11 8 8 10 11 9 9 6 11 13 10
22 18 18 17 19 16 16 13 8 7 8 6 3 4 2 2 7 2 4 3 7 1 4 7 10 9 7 5 7 10 8 8 4 7 13 13 9 11 11 3 9 11 8
21 23 20 19 18 17 14 18 14 16 11 7 5 8 9 12 12 1 7 7 7 6 9 9 10 7 5 4 2 6 5 7 4 10 13 11 5 12 8 4 7 9 3
22 22 23 20 18 18 20 17 19 16 15 14 10 14 8 12 15 9 9 7 8 9 8 8 14 10 7 7 7 3 9 3 8 8 10 11 11 9 4 4 5 6 5
Wind_Direction
136 137 131 126 127 112 106 96 90 90 81 84 90 90 90 92 93 93 94 92 90 88 85 90 94 98 101 109 130 137 160 176 175 72 102 80 80 90 85 77 61 56 101
131 142 130 122 117 110 101 104 105 101 93 93 95 91 91 91 89 87 86 84 85 90 93 95 101 113 122 129 138 155 168 176 166 83 72 92 91 40 74 134 141 80 102
142 142 129 123 119 115 109 105 108 104 101 97 102 98 98 96 94 90 88 91 92 87 85 86 81 62 96 147 168 164 175 162 143 128 167 150 72 283 149 153 185 194 159
124 131 131 131 123 119 109 114 110 99 96 94 97 102 102 100 95 94 92 87 82 80 84 89 94 108 114 135 168 181 182 186 155 130 359 236 132 120 141 152 134 139 180
126 139 130 122 120 117 114 109 103 100 100 97 95 96 104 109 102 100 92 88 81 75 72 78 106 127 140 145 157 177 196 183 140 131 96 82 158 88 177 186 174 183 196
126 136 135 125 127 124 114 107 106 105 99 101 98 99 103 102 102 100 97 85 75 72 75 81 95 119 132 151 169 185 169 156 149 159 175 182 221 243 267 214 201 203 199
122 130 132 127 121 116 114 112 104 100 97 92 91 85 84 94 109 108 95 83 80 82 90 99 105 101 98 92 87 89 158 144 150 111 146 234 235 222 257 204 197 198 204
118 124 121 117 116 115 110 107 100 96 91 79 78 78 85 93 97 91 86 83 89 98 103 99 94 93 93 78 50 31 61 141 135 156 180 221 245 253 286 251 223 217 219
119 126 115 120 115 108 103 102 100 88 77 70 76 82 81 79 78 76 76 75 82 95 93 90 86 67 49 31 19 18 345 161 166 171 194 231 236 244 271 249 241 243 238
120 132 127 107 84 87 114 101 87 72 70 70 85 79 68 74 77 60 54 55 62 57 45 21 41 56 114 74 29 23 95 131 180 282 245 217 213 245 275 263 262 262 258
118 124 119 117 111 125 102 82 85 65 72 73 86 75 66 48 72 79 57 76 74 72 72 63 50 47 6 98 93 317 200 170 87 265 255 258 243 266 270 275 278 272 261
145 146 148 141 145 139 140 87 60 66 55 65 87 81 73 81 339 342 288 91 107 89 117 81 108 94 78 59 185 66 51 267 177 194 210 240 240 262 278 287 282 268 257
148 148 144 153 133 125 142 104 44 200 70 29 44 78 175 184 337 353 146 222 320 100 20 289 74 61 346 38 11 32 47 123 205 176 72 356 316 303 338 340 328 305 261
149 144 154 158 156 127 147 127 126 109 44 112 36 32 29 19 2 18 16 3 334 51 5 325 26 53 356 187 346 4 329 140 192 216 245 303 340 337 343 19 43 41 52
152 150 166 183 156 160 147 133 101 94 73 104 107 8 357 59 49 23 38 22 54 40 35 51 342 283 323 250 215 158 218 193 256 246 261 282 305 304 329 347 74 84 73
157 159 175 174 144 146 130 161 149 191 179 89 95 351 18 44 46 19 22 39 49 45 46 6 4 47 28 27 274 274 295 264 220 259 270 282 302 300 301 298 288 285 5
164 164 169 173 158 149 136 103 200 101 113 308 163 35 44 29 50 42 15 21 52 50 42 17 8 338 337 328 4 263 293 259 236 255 272 277 282 294 291 280 259 249 252
165 170 167 163 175 144 120 73 102 56 118 246 183 350 66 2 14 41 30 35 29 0 35 55 16 320 356 291 307 302 312 262 243 265 274 278 263 258 275 276 260 262 249
171 175 164 175 176 175 172 127 106 189 76 68 179 181 51 74 356 40 43 45 52 20 355 269 71 22 17 333 288 326 253 281 278 253 269 276 284 278 251 267 247 257 245
176 178 165 177 179 187 220 175 125 96 205 164 141 31 17 56 339 9 57 36 42 16 12 55 41 45 339 2 17 286 283 261 247 295 281 274 295 327 258 244 244 250 247
177 178 176 181 193 198 185 158 168 238 179 118 250 287 87 8 328 3 13 44 29 4 20 29 75 58 324 6 3 35 249 273 14 242 296 327 286 325 298 266 272 263 270
184 189 188 195 207 205 195 214 264 158 7 122 95 353 212 24 354 9 340 357 24 332 15 8 24 45 16 357 9 12 14 157 21 264 274 277 277 330 320 341 295 272 265
192 198 206 204 212 213 185 224 238 233 225 18 258 286 218 152 281 300 312 359 302 338 349 337 356 17 43 354 359 25 0 354 13 340 323 255 281 229 253 274 311 304 294
195 203 210 221 210 227 202 192 238 232 221 257 255 186 172 263 303 259 264 268 298 304 304 334 321 8 11 27 353 343 353 338 332 326 333 297 308 227 246 290 351 336 299
202 203 209 225 222 209 226 211 212 230 216 254 252 281 260 264 278 278 252 287 282 314 305 314 312 331 357 335 336 320 318 346 329 318 321 334 256 239 219 269 1 360 358
201 202 207 216 232 221 221 232 215 212 232 213 237 238 260 276 282 263 213 255 287 302 302 311 302 306 333 350 347 338 305 344 294 308 324 323 327 235 234 314 4 11 98